QPF
0.01 0.02 0.03 0.06 0.01 0.04 0.16 0.03 0.00 0.00 0.00 0.00 0.00 0.00 0.00 0.00 0.00 0.00 0.00 0.00 0.00 0.00 0.00 0.00 0.00 0.00 0.00 0.00 0.00 0.00 0.00 0.00 0.00 0.00 0.00 0.00 0.00 0.00 0.01 0.00 0.00 0.00 0.00 0.00 0.00 0.00 0.01 0.02 0.02
0.01 0.02 0.04 0.07 0.01 0.05 0.20 0.02 0.00 0.00 0.00 0.01 0.01 0.00 0.00 0.00 0.00 0.00 0.00 0.00 0.00 0.00 0.00 0.00 0.00 0.00 0.00 0.00 0.00 0.00 0.00 0.00 0.00 0.00 0.00 0.00 0.00 0.00 0.00 0.00 0.00 0.00 0.00 0.00 0.00 0.00 0.01 0.02 0.01
0.00 0.01 0.03 0.04 0.01 0.11 0.25 0.02 0.01 0.01 0.01 0.00 0.00 0.00 0.00 0.00 0.00 0.00 0.00 0.00 0.00 0.00 0.00 0.00 0.00 0.00 0.00 0.00 0.00 0.00 0.00 0.00 0.00 0.00 0.00 0.00 0.00 0.00 0.00 0.00 0.00 0.00 0.00 0.00 0.00 0.00 0.02 0.01 0.01
0.00 0.00 0.00 0.02 0.08 0.07 0.04 0.01 0.03 0.02 0.02 0.00 0.00 0.00 0.00 0.00 0.00 0.00 0.00 0.00 0.00 0.00 0.00 0.00 0.00 0.00 0.00 0.00 0.00 0.00 0.00 0.00 0.00 0.00 0.00 0.00 0.00 0.00 0.00 0.00 0.00 0.00 0.00 0.00 0.00 0.00 0.01 0.00 0.00
0.00 0.00 0.01 0.11 0.11 0.03 0.04 0.00 0.00 0.00 0.01 0.00 0.00 0.00 0.00 0.00 0.00 0.00 0.00 0.00 0.00 0.00 0.00 0.00 0.00 0.00 0.00 0.00 0.00 0.00 0.00 0.00 0.00 0.00 0.00 0.00 0.00 0.00 0.00 0.00 0.00 0.00 0.00 0.00 0.00 0.00 0.00 0.01 0.01
0.00 0.00 0.00 0.06 0.03 0.00 0.01 0.00 0.00 0.00 0.00 0.00 0.00 0.00 0.00 0.00 0.00 0.00 0.00 0.00 0.00 0.00 0.00 0.00 0.00 0.00 0.00 0.00 0.00 0.00 0.00 0.00 0.00 0.00 0.00 0.00 0.00 0.00 0.00 0.00 0.00 0.00 0.00 0.00 0.00 0.00 0.00 0.01 0.00
0.00 0.00 0.00 0.00 0.01 0.00 0.00 0.00 0.00 0.00 0.00 0.00 0.00 0.00 0.00 0.00 0.00 0.00 0.00 0.00 0.00 0.00 0.00 0.00 0.00 0.00 0.00 0.00 0.00 0.00 0.00 0.00 0.00 0.00 0.00 0.00 0.02 0.09 0.08 0.04 0.00 0.00 0.00 0.00 0.00 0.00 0.00 0.00 0.00
0.00 0.00 0.00 0.00 0.00 0.00 0.00 0.00 0.00 0.00 0.00 0.00 0.00 0.00 0.00 0.00 0.00 0.00 0.00 0.00 0.00 0.00 0.00 0.00 0.00 0.00 0.00 0.00 0.00 0.00 0.00 0.00 0.00 0.00 0.00 0.00 0.04 0.06 0.13 0.04 0.00 0.00 0.01 0.01 0.00 0.00 0.00 0.00 0.00
0.00 0.00 0.00 0.00 0.00 0.00 0.00 0.00 0.00 0.00 0.00 0.00 0.00 0.00 0.00 0.00 0.00 0.00 0.00 0.00 0.00 0.00 0.00 0.00 0.00 0.00 0.00 0.00 0.00 0.00 0.00 0.00 0.00 0.00 0.00 0.00 0.01 0.02 0.01 0.02 0.00 0.00 0.03 0.05 0.04 0.00 0.00 0.00 0.00
0.00 0.00 0.00 0.00 0.00 0.00 0.00 0.00 0.00 0.00 0.00 0.00 0.00 0.00 0.00 0.00 0.00 0.00 0.00 0.00 0.00 0.00 0.00 0.00 0.00 0.00 0.00 0.00 0.00 0.00 0.00 0.00 0.00 0.00 0.00 0.00 0.00 0.00 0.00 0.01 0.00 0.00 0.00 0.04 0.11 0.06 0.00 0.01 0.02
0.00 0.00 0.00 0.00 0.00 0.00 0.00 0.00 0.00 0.00 0.00 0.00 0.00 0.00 0.00 0.00 0.00 0.00 0.00 0.00 0.00 0.00 0.00 0.00 0.00 0.00 0.00 0.00 0.00 0.00 0.00 0.00 0.00 0.03 0.00 0.00 0.00 0.00 0.00 0.00 0.00 0.00 0.01 0.03 0.03 0.10 0.04 0.03 0.03
0.00 0.00 0.00 0.00 0.00 0.00 0.00 0.00 0.00 0.00 0.00 0.00 0.00 0.00 0.00 0.00 0.00 0.00 0.00 0.00 0.00 0.00 0.00 0.00 0.00 0.00 0.00 0.00 0.00 0.00 0.00 0.00 0.00 0.02 0.02 0.00 0.00 0.00 0.00 0.00 0.00 0.00 0.00 0.02 0.00 0.00 0.00 0.01 0.08
0.00 0.00 0.00 0.00 0.00 0.00 0.00 0.00 0.00 0.00 0.02 0.01 0.00 0.00 0.00 0.00 0.00 0.00 0.00 0.00 0.00 0.00 0.00 0.00 0.00 0.00 0.00 0.00 0.00 0.00 0.00 0.00 0.00 0.00 0.03 0.01 0.00 0.00 0.00 0.00 0.00 0.00 0.00 0.00 0.00 0.00 0.00 0.00 0.03
0.00 0.00 0.00 0.00 0.00 0.00 0.00 0.00 0.00 0.00 0.01 0.01 0.01 0.00 0.00 0.00 0.00 0.00 0.00 0.00 0.00 0.00 0.00 0.00 0.00 0.00 0.00 0.00 0.00 0.00 0.00 0.00 0.00 0.00 0.00 0.00 0.00 0.00 0.00 0.00 0.02 0.02 0.00 0.00 0.02 0.01 0.00 0.02 0.00
0.00 0.00 0.00 0.00 0.00 0.00 0.00 0.00 0.00 0.00 0.00 0.00 0.02 0.01 0.01 0.01 0.00 0.00 0.00 0.00 0.00 0.00 0.00 0.00 0.00 0.00 0.00 0.00 0.00 0.00 0.00 0.00 0.01 0.00 0.00 0.00 0.00 0.00 0.00 0.00 0.00 0.00 0.00 0.00 0.01 0.05 0.00 0.00 0.00
0.00 0.00 0.00 0.00 0.00 0.00 0.00 0.00 0.00 0.00 0.00 0.00 0.00 0.01 0.01 0.04 0.03 0.02 0.00 0.00 0.00 0.00 0.00 0.00 0.00 0.00 0.00 0.00 0.00 0.00 0.00 0.00 0.00 0.00 0.00 0.00 0.00 0.00 0.00 0.00 0.00 0.00 0.00 0.00 0.03 0.08 0.00 0.01 0.02
0.00 0.00 0.00 0.00 0.00 0.00 0.00 0.00 0.00 0.00 0.00 0.00 0.00 0.00 0.03 0.05 0.04 0.03 0.03 0.00 0.00 0.00 0.00 0.00 0.00 0.00 0.00 0.00 0.00 0.00 0.00 0.00 0.00 0.00 0.00 0.00 0.00 0.00 0.00 0.00 0.00 0.00 0.00 0.00 0.00 0.03 0.02 0.01 0.04
0.00 0.00 0.00 0.00 0.00 0.00 0.00 0.00 0.00 0.00 0.00 0.00 0.00 0.00 0.03 0.10 0.20 0.20 0.10 0.04 0.00 0.00 0.00 0.00 0.00 0.00 0.00 0.00 0.01 0.00 0.00 0.00 0.00 0.00 0.00 0.00 0.00 0.00 0.00 0.00 0.00 0.00 0.00 0.00 0.01 0.01 0.04 0.04 0.03
0.00 0.00 0.00 0.00 0.00 0.00 0.00 0.00 0.00 0.00 0.00 0.00 0.00 0.01 0.01 0.13 0.38 0.28 0.16 0.11 0.02 0.01 0.00 0.00 0.00 0.00 0.00 0.00 0.00 0.00 0.00 0.00 0.00 0.00 0.00 0.00 0.00 0.00 0.00 0.00 0.00 0.00 0.00 0.04 0.02 0.03 0.06 0.07 0.20
0.00 0.00 0.00 0.00 0.00 0.00 0.00 0.00 0.00 0.00 0.00 0.00 0.00 0.00 0.02 0.05 0.15 0.12 0.02 0.06 0.05 0.03 0.02 0.00 0.00 0.00 0.00 0.01 0.01 0.00 0.00 0.00 0.00 0.00 0.01 0.00 0.00 0.00 0.02 0.01 0.00 0.02 0.00 0.00 0.00 0.01 0.09 0.07 0.11
0.00 0.00 0.00 0.00 0.00 0.00 0.00 0.00 0.00 0.00 0.00 0.00 0.00 0.00 0.00 0.05 0.06 0.16 0.07 0.01 0.04 0.03 0.02 0.01 0.01 0.01 0.05 0.03 0.01 0.00 0.00 0.00 0.00 0.00 0.04 0.00 0.00 0.00 0.02 0.00 0.01 0.09 0.00 0.01 0.01 0.00 0.02 0.08 0.06
0.00 0.00 0.00 0.00 0.00 0.00 0.00 0.00 0.00 0.00 0.00 0.00 0.00 0.00 0.00 0.00 0.00 0.01 0.02 0.03 0.01 0.03 0.02 0.01 0.06 0.06 0.13 0.06 0.01 0.00 0.00 0.00 0.00 0.00 0.00 0.00 0.00 0.00 0.01 0.02 0.10 0.07 0.00 0.00 0.04 0.01 0.02 0.01 0.04
0.00 0.00 0.00 0.00 0.00 0.00 0.00 0.00 0.00 0.00 0.00 0.00 0.00 0.00 0.00 0.00 0.00 0.00 0.01 0.03 0.03 0.01 0.01 0.02 0.06 0.06 0.14 0.05 0.00 0.00 0.00 0.00 0.00 0.00 0.00 0.00 0.00 0.00 0.01 0.03 0.10 0.07 0.00 0.00 0.00 0.00 0.03 0.01 0.03
0.00 0.00 0.00 0.00 0.00 0.00 0.00 0.00 0.00 0.00 0.00 0.00 0.00 0.00 0.00 0.00 0.00 0.00 0.00 0.03 0.04 0.01 0.00 0.00 0.04 0.05 0.11 0.03 0.00 0.00 0.00 0.00 0.00 0.00 0.00 0.00 0.00 0.00 0.00 0.05 0.10 0.07 0.00 0.00 0.00 0.00 0.03 0.00 0.02
0.00 0.00 0.00 0.00 0.00 0.00 0.00 0.00 0.00 0.00 0.00 0.00 0.00 0.00 0.00 0.00 0.00 0.00 0.00 0.00 0.03 0.02 0.01 0.00 0.04 0.02 0.02 0.00 0.00 0.00 0.00 0.00 0.00 0.00 0.01 0.00 0.00 0.01 0.16 0.36 0.19 0.05 0.01 0.00 0.00 0.01 0.01 0.00 0.00
0.00 0.00 0.00 0.00 0.00 0.00 0.00 0.00 0.00 0.00 0.00 0.00 0.00 0.00 0.00 0.00 0.00 0.00 0.00 0.00 0.03 0.04 0.01 0.00 0.00 0.00 0.00 0.00 0.00 0.00 0.00 0.00 0.00 0.03 0.02 0.02 0.00 0.05 0.17 0.17 0.32 0.26 0.16 0.14 0.02 0.00 0.06 0.04 0.00
0.00 0.00 0.00 0.00 0.00 0.00 0.00 0.00 0.00 0.00 0.00 0.00 0.00 0.00 0.00 0.00 0.00 0.00 0.00 0.00 0.02 0.02 0.00 0.00 0.00 0.00 0.00 0.00 0.00 0.00 0.01 0.01 0.01 0.00 0.00 0.02 0.03 0.03 0.06 0.03 0.03 0.05 0.16 0.27 0.19 0.02 0.03 0.02 0.00
0.00 0.00 0.00 0.00 0.00 0.00 0.00 0.00 0.00 0.00 0.00 0.00 0.00 0.00 0.00 0.00 0.00 0.00 0.00 0.00 0.00 0.00 0.00 0.00 0.00 0.00 0.00 0.00 0.00 0.00 0.05 0.01 0.03 0.02 0.00 0.01 0.01 0.07 0.07 0.05 0.05 0.00 0.00 0.10 0.27 0.14 0.01 0.00 0.00
0.00 0.00 0.00 0.00 0.00 0.00 0.00 0.00 0.00 0.00 0.00 0.00 0.00 0.00 0.00 0.00 0.00 0.00 0.00 0.00 0.00 0.00 0.00 0.00 0.00 0.00 0.00 0.00 0.00 0.00 0.00 0.02 0.12 0.04 0.00 0.01 0.00 0.00 0.06 0.04 0.09 0.04 0.07 0.12 0.25 0.15 0.03 0.00 0.00
0.00 0.00 0.00 0.00 0.00 0.00 0.00 0.00 0.00 0.00 0.00 0.00 0.00 0.00 0.00 0.00 0.00 0.00 0.00 0.00 0.00 0.00 0.00 0.00 0.00 0.00 0.00 0.00 0.05 0.02 0.00 0.03 0.08 0.01 0.01 0.00 0.00 0.02 0.03 0.05 0.07 0.13 0.05 0.05 0.16 0.16 0.08 0.02 0.00
MSLP
1007.07 1007.27 1007.36 1007.83 1009.17 1010.26 1008.71 1006.48 1005.26 1005.04 1005.16 1005.43 1005.37 1005.68 1006.97 1007.42 1008.07 1009.86 1009.88 1010.56 1011.35 1012.05 1012.48 1012.82 1013.15 1013.48 1013.87 1014.22 1014.57 1014.88 1014.97 1015.22 1015.43 1015.65 1015.90 1016.15 1016.26 1016.43 1016.78 1017.06 1017.15 1017.14 1017.10 1016.97 1017.01 1017.35 1017.57 1017.62 1017.65
1006.76 1007.27 1007.79 1008.79 1010.16 1010.45 1008.92 1006.86 1005.48 1005.00 1005.19 1005.30 1005.66 1006.34 1006.96 1008.37 1008.45 1009.66 1010.50 1010.94 1011.34 1011.89 1012.48 1012.94 1013.24 1013.58 1013.90 1014.26 1014.65 1015.06 1015.23 1015.28 1015.47 1015.79 1016.07 1016.33 1016.50 1016.52 1016.69 1017.01 1017.29 1017.34 1017.29 1017.19 1017.21 1017.41 1017.60 1017.84 1017.90
1006.34 1006.38 1008.28 1009.60 1010.65 1009.81 1008.15 1006.53 1006.06 1006.01 1005.71 1005.19 1005.82 1006.45 1007.27 1008.71 1009.32 1010.22 1010.79 1011.29 1011.58 1012.21 1012.57 1013.05 1013.38 1013.74 1014.10 1014.36 1014.66 1015.05 1015.40 1015.56 1015.57 1015.84 1016.12 1016.36 1016.58 1016.69 1016.86 1017.09 1017.31 1017.43 1017.51 1017.51 1017.54 1017.56 1017.72 1017.92 1018.14
1006.26 1007.58 1009.20 1009.45 1009.80 1008.97 1007.26 1006.21 1005.84 1006.39 1005.88 1005.35 1005.99 1007.00 1007.92 1008.31 1008.79 1009.68 1010.93 1011.58 1012.01 1012.40 1012.73 1013.19 1013.45 1013.81 1014.14 1014.43 1014.76 1015.01 1015.48 1015.72 1015.83 1015.94 1016.07 1016.36 1016.59 1016.81 1017.06 1017.27 1017.38 1017.49 1017.57 1017.55 1017.63 1017.73 1017.85 1017.95 1018.10
1006.84 1008.40 1009.59 1009.45 1009.22 1006.91 1005.95 1004.77 1004.81 1005.20 1005.35 1005.85 1006.31 1007.64 1008.27 1008.75 1009.38 1010.30 1011.10 1011.72 1012.14 1012.73 1012.81 1013.20 1013.58 1014.01 1014.29 1014.48 1014.79 1015.14 1015.37 1015.59 1015.96 1016.16 1016.28 1016.46 1016.71 1016.88 1017.09 1017.26 1017.38 1017.55 1017.66 1017.68 1017.69 1017.83 1018.01 1018.09 1018.24
1007.45 1008.51 1009.73 1009.07 1007.43 1005.57 1004.50 1004.24 1004.53 1004.69 1005.49 1006.25 1007.27 1007.82 1009.11 1009.21 1009.83 1010.63 1011.07 1011.71 1012.20 1012.64 1012.96 1013.25 1013.64 1014.08 1014.42 1014.58 1014.77 1015.15 1015.44 1015.71 1016.02 1016.32 1016.54 1016.65 1016.82 1017.02 1017.14 1017.39 1017.40 1017.58 1017.69 1017.75 1017.77 1017.90 1018.01 1018.28 1018.35
1007.80 1008.61 1009.00 1008.16 1006.39 1004.62 1003.88 1003.31 1004.31 1004.81 1005.69 1006.15 1006.68 1008.18 1009.46 1009.86 1010.13 1010.55 1011.14 1011.60 1012.19 1012.55 1013.08 1013.40 1013.79 1014.06 1014.47 1014.76 1014.92 1015.23 1015.58 1015.83 1016.04 1016.21 1016.58 1016.74 1016.79 1016.97 1017.12 1017.41 1017.54 1017.68 1017.79 1017.82 1017.83 1017.85 1017.84 1017.98 1018.32
1007.46 1008.24 1008.32 1007.31 1005.54 1004.09 1003.15 1003.11 1003.72 1004.30 1005.30 1005.95 1006.59 1007.91 1009.00 1009.50 1010.19 1010.67 1011.32 1011.68 1012.07 1012.61 1013.19 1013.61 1013.95 1014.19 1014.54 1014.84 1015.03 1015.26 1015.60 1015.85 1016.08 1016.29 1016.57 1016.83 1016.89 1017.01 1017.27 1017.31 1017.50 1017.71 1017.87 1017.87 1017.90 1017.99 1017.93 1017.84 1017.99
1007.47 1008.06 1007.87 1006.64 1004.77 1003.55 1002.88 1003.29 1004.02 1004.26 1005.18 1005.55 1006.24 1006.61 1007.88 1009.14 1010.31 1010.94 1011.74 1012.22 1012.50 1012.70 1013.30 1013.54 1013.94 1014.31 1014.65 1014.87 1015.04 1015.23 1015.54 1015.86 1016.17 1016.34 1016.51 1016.78 1017.06 1017.06 1017.11 1017.27 1017.36 1017.46 1017.64 1017.84 1017.99 1018.10 1018.07 1018.00 1017.97
1006.93 1007.19 1006.26 1005.03 1004.06 1003.24 1002.99 1003.30 1003.81 1004.50 1005.29 1006.29 1006.72 1007.47 1008.49 1009.47 1010.38 1010.88 1011.76 1012.38 1012.67 1012.95 1013.27 1013.50 1013.83 1014.14 1014.61 1014.73 1015.03 1015.39 1015.73 1016.02 1016.24 1016.48 1016.61 1016.84 1017.02 1017.14 1017.11 1017.10 1017.14 1017.26 1017.36 1017.61 1017.90 1017.95 1018.04 1018.02 1018.31
1005.61 1004.96 1004.27 1003.56 1003.09 1002.80 1003.00 1003.33 1003.93 1004.97 1005.84 1006.30 1006.73 1007.66 1008.55 1009.44 1010.30 1010.67 1011.42 1011.53 1011.74 1012.61 1013.17 1013.51 1013.77 1014.02 1014.47 1014.61 1015.14 1015.48 1015.76 1015.96 1016.25 1016.53 1016.61 1016.72 1016.96 1017.13 1016.96 1017.02 1017.00 1017.16 1017.15 1017.45 1017.61 1017.81 1018.05 1018.09 1018.28
1004.61 1003.57 1002.93 1002.62 1002.25 1002.48 1003.11 1003.86 1004.54 1005.02 1005.40 1006.26 1006.49 1007.09 1008.30 1009.27 1009.80 1010.41 1011.07 1011.74 1012.07 1012.50 1012.94 1013.38 1013.56 1013.89 1014.15 1014.54 1014.99 1015.25 1015.44 1015.72 1016.07 1016.36 1016.46 1016.72 1016.90 1016.97 1017.15 1017.19 1017.06 1017.17 1017.17 1017.38 1017.47 1017.70 1017.73 1017.97 1018.38
1003.25 1002.84 1002.52 1002.11 1002.23 1002.74 1003.07 1004.01 1004.47 1005.34 1005.54 1005.96 1006.29 1007.81 1008.37 1009.05 1009.57 1009.93 1010.39 1011.17 1011.66 1012.25 1012.61 1013.03 1013.40 1013.62 1013.79 1014.30 1014.69 1015.00 1015.20 1015.42 1015.51 1015.91 1016.25 1016.40 1016.62 1016.79 1016.86 1016.92 1016.96 1017.03 1017.06 1017.10 1017.38 1017.45 1017.60 1017.78 1018.05
1002.01 1001.80 1002.01 1001.78 1002.33 1002.93 1003.38 1004.37 1004.49 1006.06 1006.21 1006.43 1006.99 1007.68 1008.20 1008.66 1009.05 1009.53 1009.95 1010.76 1011.16 1011.49 1012.07 1012.57 1012.91 1013.26 1013.55 1014.03 1014.32 1014.63 1014.77 1014.90 1015.29 1015.64 1015.84 1015.89 1016.15 1016.38 1016.79 1016.96 1016.86 1016.96 1016.83 1016.89 1017.06 1017.27 1017.44 1017.61 1017.70
1001.64 1001.73 1002.07 1001.97 1002.40 1003.02 1003.49 1004.52 1005.58 1006.16 1006.25 1007.05 1007.36 1008.16 1008.58 1009.02 1008.74 1008.86 1009.51 1010.38 1010.45 1010.92 1011.36 1011.90 1012.36 1012.86 1013.38 1013.79 1013.92 1014.23 1014.36 1014.52 1014.88 1015.23 1015.30 1015.47 1015.78 1016.10 1016.26 1016.57 1016.76 1016.63 1016.61 1016.66 1016.88 1017.06 1017.23 1017.50 1017.63
1002.32 1002.24 1002.43 1002.11 1002.71 1002.87 1003.37 1004.39 1006.10 1006.02 1006.58 1007.26 1007.43 1007.83 1008.24 1008.82 1009.13 1008.34 1008.40 1009.30 1010.01 1010.36 1010.93 1011.38 1011.83 1012.51 1013.04 1013.44 1013.62 1013.68 1013.91 1014.11 1014.54 1014.94 1015.12 1015.13 1015.44 1015.78 1016.13 1016.33 1016.51 1016.38 1016.39 1016.50 1016.79 1016.91 1017.23 1017.43 1017.65
1003.32 1002.98 1002.77 1002.17 1001.81 1002.53 1003.54 1004.20 1005.19 1005.88 1006.81 1007.31 1007.59 1008.06 1008.38 1008.69 1008.53 1008.49 1007.93 1008.63 1009.20 1009.76 1010.28 1011.06 1011.48 1012.14 1012.64 1012.98 1013.04 1013.16 1013.40 1013.70 1014.22 1014.87 1015.03 1015.00 1015.22 1015.46 1015.87 1016.13 1016.07 1016.01 1016.10 1016.35 1016.56 1016.80 1016.95 1017.36 1017.44
1003.95 1003.40 1002.76 1002.17 1001.66 1001.94 1003.13 1003.73 1004.92 1005.82 1006.30 1006.80 1007.27 1007.95 1009.22 1009.94 1011.29 1010.51 1009.34 1008.38 1009.01 1009.33 1009.86 1010.25 1010.94 1011.56 1012.21 1012.68 1012.97 1013.19 1013.48 1013.48 1013.77 1014.20 1014.65 1014.95 1015.12 1015.21 1015.55 1015.77 1015.95 1015.90 1016.06 1016.17 1016.46 1016.63 1016.79 1016.89 1017.10
1004.22 1003.73 1002.49 1001.43 1001.34 1002.00 1002.81 1003.79 1004.66 1005.16 1006.25 1007.20 1007.07 1007.62 1008.80 1009.47 1009.56 1010.75 1010.13 1008.73 1008.32 1009.32 1009.59 1010.17 1010.82 1011.42 1011.80 1012.57 1012.93 1013.48 1013.62 1013.60 1013.92 1013.85 1014.20 1014.64 1015.05 1015.08 1015.39 1015.58 1015.66 1015.65 1015.73 1015.71 1016.11 1016.40 1016.79 1016.82 1016.96
1003.80 1003.10 1002.20 1001.55 1001.27 1001.95 1002.91 1004.03 1004.73 1005.48 1006.25 1006.01 1006.93 1007.51 1008.66 1009.07 1008.99 1008.64 1008.75 1008.77 1008.93 1009.03 1009.22 1009.75 1010.09 1010.89 1011.41 1011.95 1012.46 1012.55 1012.86 1013.38 1013.61 1013.63 1014.13 1014.32 1014.62 1014.77 1014.86 1015.15 1015.36 1015.41 1015.46 1015.50 1015.74 1016.14 1016.60 1016.61 1016.77
1003.16 1002.46 1001.86 1001.51 1001.61 1002.66 1003.51 1005.14 1005.51 1005.75 1006.40 1006.24 1006.59 1006.69 1008.41 1007.89 1007.37 1006.98 1007.24 1007.82 1008.41 1009.13 1009.30 1009.61 1009.80 1010.62 1011.61 1012.16 1012.67 1012.69 1012.81 1013.34 1013.62 1013.93 1014.39 1014.29 1014.22 1014.30 1014.44 1014.60 1014.76 1014.90 1015.02 1015.28 1015.58 1015.91 1016.28 1016.50 1016.51
1002.72 1001.37 1001.32 1001.94 1002.80 1004.11 1004.59 1006.14 1006.21 1005.71 1005.94 1006.34 1006.56 1007.10 1007.26 1007.51 1006.92 1006.27 1006.19 1006.44 1007.85 1008.79 1009.69 1009.79 1010.17 1010.94 1011.91 1012.38 1012.67 1012.47 1012.56 1013.59 1013.68 1014.13 1014.10 1014.00 1013.88 1013.91 1014.03 1014.01 1014.12 1014.43 1014.57 1014.76 1015.12 1015.47 1015.85 1016.15 1016.34
1001.89 1001.24 1001.68 1002.35 1003.61 1004.94 1005.92 1006.44 1005.47 1005.90 1005.79 1005.82 1006.42 1006.84 1006.98 1006.71 1006.07 1005.72 1005.76 1006.20 1007.67 1008.46 1009.31 1009.93 1010.33 1011.19 1011.78 1012.47 1012.23 1012.56 1012.83 1012.95 1013.17 1013.68 1013.92 1013.81 1013.66 1013.40 1013.73 1013.70 1013.84 1014.20 1014.44 1014.48 1014.76 1015.16 1015.44 1015.73 1016.04
1001.13 1001.78 1002.66 1004.14 1005.35 1006.85 1006.92 1007.02 1005.79 1005.05 1003.87 1004.94 1005.69 1005.98 1006.36 1006.51 1006.15 1006.24 1006.66 1007.08 1007.76 1008.50 1009.05 1009.53 1010.07 1011.17 1011.97 1012.37 1012.28 1012.45 1012.70 1012.87 1013.20 1013.43 1013.68 1013.53 1013.40 1013.40 1013.63 1013.53 1013.66 1013.95 1014.25 1014.39 1014.50 1014.68 1014.99 1015.31 1015.50
1001.21 1002.77 1004.39 1006.25 1007.18 1008.09 1007.53 1007.52 1004.87 1003.29 1003.18 1003.12 1003.71 1005.05 1004.78 1005.29 1005.96 1006.31 1006.44 1006.57 1007.47 1008.16 1008.72 1009.24 1010.12 1011.04 1011.59 1011.74 1012.10 1012.39 1012.65 1012.74 1012.82 1013.00 1013.19 1013.22 1013.30 1013.35 1013.37 1013.59 1013.42 1013.51 1013.59 1013.88 1014.25 1014.45 1014.84 1015.08 1015.32
1001.53 1002.79 1004.73 1006.71 1008.31 1008.28 1007.63 1006.65 1004.06 1002.51 1002.18 1002.15 1002.34 1002.58 1003.23 1004.68 1005.12 1005.57 1006.14 1006.20 1006.84 1007.51 1008.25 1009.03 1009.95 1010.54 1011.05 1011.29 1011.67 1012.16 1012.40 1012.39 1012.17 1012.23 1012.63 1012.98 1013.10 1013.22 1013.33 1012.79 1013.33 1013.55 1013.61 1013.59 1013.92 1014.35 1014.64 1014.91 1015.06
1001.41 1002.69 1003.23 1005.62 1007.77 1008.31 1007.48 1006.06 1003.77 1001.78 1001.50 1001.62 1001.63 1001.96 1002.75 1003.13 1003.83 1004.67 1005.29 1005.66 1006.48 1007.14 1007.88 1008.70 1009.59 1009.96 1010.86 1011.01 1011.46 1011.80 1011.79 1011.75 1011.79 1011.96 1012.10 1012.28 1012.52 1012.77 1013.12 1012.94 1012.83 1013.19 1013.17 1013.58 1013.79 1013.96 1014.31 1014.57 1014.77
1000.50 1001.60 1003.68 1005.95 1007.50 1008.25 1007.57 1006.26 1004.16 1002.65 1002.25 1001.85 1001.17 1001.59 1002.01 1002.39 1003.22 1004.27 1004.60 1005.43 1006.26 1006.96 1007.68 1008.59 1009.21 1009.77 1010.24 1010.53 1010.95 1011.06 1011.20 1011.33 1011.55 1011.85 1011.89 1011.90 1011.95 1012.56 1012.77 1012.72 1012.82 1013.04 1013.27 1013.31 1013.69 1013.76 1013.94 1014.28 1014.50
1000.82 1001.76 1003.53 1005.09 1006.47 1007.46 1007.57 1006.22 1003.67 1003.10 1002.55 1001.45 1000.78 1000.79 1001.34 1001.96 1003.02 1003.72 1004.54 1005.26 1005.95 1006.53 1007.50 1008.40 1008.96 1009.41 1009.60 1010.11 1010.35 1010.59 1010.83 1011.05 1011.28 1011.43 1011.57 1011.60 1011.71 1011.99 1012.34 1012.38 1012.52 1012.80 1013.21 1013.29 1013.53 1013.65 1013.58 1013.99 1014.16
999.98 1000.99 1002.46 1004.96 1006.21 1006.58 1006.23 1004.94 1003.38 1002.62 1002.41 1001.27 1000.82 1001.12 1001.35 1002.07 1002.80 1003.74 1004.46 1005.24 1005.92 1006.66 1007.66 1008.20 1008.44 1008.46 1008.89 1009.30 1009.83 1010.11 1010.20 1010.53 1010.89 1011.26 1011.41 1011.42 1011.59 1011.79 1012.12 1012.38 1012.73 1012.65 1012.98 1013.17 1013.25 1013.42 1013.06 1013.52 1013.97
Thickness
5848 5846 5845 5829 5787 5774 5772 5806 5835 5823 5818 5831 5837 5829 5816 5821 5810 5785 5818 5816 5810 5803 5798 5795 5793 5790 5786 5784 5781 5777 5775 5772 5769 5767 5764 5762 5760 5757 5753 5749 5748 5748 5748 5750 5751 5748 5745 5744 5744
5853 5847 5835 5810 5766 5744 5769 5812 5822 5828 5831 5839 5836 5828 5818 5801 5822 5814 5810 5815 5811 5805 5800 5795 5793 5790 5787 5784 5780 5776 5774 5773 5770 5767 5764 5762 5760 5759 5756 5752 5750 5748 5748 5749 5750 5748 5746 5743 5743
5857 5856 5813 5788 5766 5749 5782 5813 5821 5824 5834 5839 5830 5835 5824 5806 5818 5813 5816 5813 5810 5804 5800 5795 5792 5790 5786 5784 5781 5777 5774 5772 5771 5768 5765 5763 5761 5760 5758 5754 5752 5749 5747 5746 5747 5748 5746 5743 5741
5849 5832 5811 5780 5770 5781 5801 5820 5822 5805 5830 5845 5839 5818 5826 5834 5826 5825 5818 5812 5807 5804 5799 5795 5792 5789 5786 5784 5780 5777 5773 5771 5769 5767 5766 5764 5762 5760 5757 5754 5752 5750 5748 5747 5748 5748 5747 5745 5743
5844 5819 5781 5762 5773 5803 5820 5841 5839 5825 5831 5833 5836 5814 5816 5829 5830 5823 5817 5812 5805 5801 5799 5795 5792 5787 5784 5783 5781 5777 5775 5772 5769 5766 5763 5762 5761 5759 5757 5755 5753 5752 5750 5749 5749 5748 5746 5745 5744
5817 5815 5778 5775 5793 5824 5839 5849 5842 5834 5832 5827 5819 5817 5810 5831 5823 5819 5819 5811 5807 5801 5798 5795 5791 5787 5783 5782 5781 5777 5774 5772 5768 5766 5762 5760 5760 5759 5757 5755 5754 5753 5752 5751 5749 5746 5746 5744 5744
5811 5798 5788 5797 5801 5825 5838 5857 5833 5832 5824 5824 5834 5806 5812 5818 5821 5820 5817 5813 5807 5801 5797 5793 5789 5786 5783 5780 5779 5776 5773 5771 5768 5766 5762 5759 5760 5761 5758 5756 5755 5753 5752 5752 5750 5748 5748 5746 5745
5822 5810 5793 5799 5805 5818 5849 5852 5852 5841 5829 5844 5841 5805 5802 5819 5821 5819 5813 5810 5807 5801 5796 5792 5788 5785 5783 5780 5777 5776 5773 5771 5769 5765 5760 5757 5759 5760 5758 5758 5756 5753 5752 5751 5749 5747 5747 5747 5747
5828 5794 5785 5799 5820 5828 5854 5842 5852 5856 5837 5841 5841 5837 5833 5828 5820 5814 5805 5803 5801 5799 5795 5791 5788 5785 5782 5780 5778 5776 5774 5771 5768 5765 5760 5757 5759 5761 5761 5760 5758 5756 5754 5752 5750 5747 5747 5747 5747
5816 5788 5801 5833 5840 5840 5847 5841 5846 5839 5832 5825 5827 5835 5832 5823 5814 5808 5800 5796 5796 5794 5794 5793 5790 5787 5783 5781 5779 5777 5773 5770 5768 5765 5762 5761 5761 5760 5761 5762 5760 5758 5757 5755 5751 5749 5748 5747 5746
5827 5820 5839 5847 5853 5852 5848 5845 5852 5832 5817 5822 5820 5821 5826 5821 5813 5811 5804 5805 5804 5798 5795 5792 5791 5787 5784 5782 5778 5775 5773 5772 5769 5766 5764 5764 5762 5761 5763 5764 5762 5761 5760 5758 5755 5752 5751 5750 5747
5823 5848 5854 5855 5860 5853 5843 5847 5836 5837 5833 5838 5838 5836 5825 5816 5815 5811 5805 5800 5800 5797 5794 5793 5791 5788 5786 5782 5778 5776 5774 5773 5770 5768 5766 5765 5763 5762 5761 5762 5762 5761 5761 5760 5757 5755 5754 5751 5745
5835 5846 5856 5861 5857 5851 5854 5837 5837 5832 5842 5847 5839 5826 5822 5817 5816 5818 5816 5808 5804 5797 5795 5794 5791 5789 5788 5783 5780 5777 5775 5772 5772 5770 5768 5767 5766 5764 5763 5764 5763 5762 5761 5760 5758 5756 5754 5751 5747
5857 5858 5856 5863 5853 5853 5842 5835 5839 5829 5839 5838 5833 5822 5821 5816 5816 5818 5818 5810 5807 5805 5799 5796 5794 5791 5788 5785 5781 5779 5777 5775 5773 5772 5770 5771 5769 5767 5764 5763 5763 5761 5761 5760 5760 5757 5755 5752 5750
5861 5843 5848 5853 5850 5843 5850 5825 5812 5833 5838 5828 5827 5820 5815 5812 5819 5817 5818 5810 5814 5810 5805 5799 5796 5792 5789 5786 5782 5779 5779 5776 5774 5772 5773 5772 5770 5769 5768 5765 5764 5764 5762 5761 5760 5758 5756 5753 5750
5834 5834 5811 5841 5841 5846 5844 5804 5807 5830 5827 5821 5826 5826 5825 5818 5815 5828 5826 5820 5815 5813 5805 5802 5801 5794 5790 5786 5784 5780 5777 5777 5774 5771 5771 5772 5771 5770 5768 5766 5765 5764 5764 5762 5760 5760 5758 5754 5751
5815 5795 5807 5822 5854 5845 5836 5819 5825 5831 5824 5819 5822 5821 5821 5823 5821 5819 5829 5823 5820 5815 5811 5802 5800 5793 5790 5787 5785 5783 5781 5778 5773 5769 5770 5772 5772 5770 5768 5766 5765 5766 5765 5763 5761 5760 5760 5755 5753
5790 5801 5814 5814 5844 5847 5831 5830 5827 5828 5828 5826 5824 5822 5809 5806 5790 5796 5810 5821 5817 5814 5810 5810 5802 5795 5789 5786 5783 5781 5779 5779 5773 5770 5770 5770 5771 5770 5769 5767 5764 5765 5765 5763 5762 5760 5761 5759 5757
5809 5806 5816 5838 5854 5842 5830 5829 5826 5833 5828 5818 5823 5822 5810 5799 5795 5777 5797 5813 5818 5809 5808 5805 5799 5793 5789 5780 5778 5775 5773 5774 5769 5769 5767 5766 5766 5767 5766 5766 5766 5765 5766 5767 5764 5760 5758 5758 5758
5811 5810 5816 5840 5854 5842 5831 5825 5827 5827 5823 5830 5826 5821 5811 5806 5805 5800 5800 5811 5808 5804 5807 5806 5803 5794 5789 5783 5780 5781 5777 5772 5770 5769 5765 5765 5765 5767 5767 5765 5766 5768 5768 5768 5766 5761 5757 5759 5760
5808 5805 5820 5827 5841 5835 5828 5801 5812 5823 5819 5826 5829 5833 5810 5815 5818 5820 5818 5820 5814 5806 5802 5802 5803 5794 5785 5781 5776 5775 5774 5770 5765 5764 5761 5765 5765 5767 5768 5767 5768 5771 5769 5768 5767 5763 5759 5755 5759
5791 5840 5844 5835 5814 5784 5815 5764 5795 5813 5813 5817 5821 5821 5817 5815 5821 5824 5827 5826 5813 5806 5801 5799 5798 5788 5780 5776 5773 5773 5770 5762 5761 5760 5762 5766 5766 5768 5768 5769 5770 5771 5769 5765 5766 5765 5761 5759 5755
5814 5843 5841 5837 5812 5795 5791 5774 5799 5801 5798 5813 5811 5815 5818 5821 5825 5827 5826 5827 5813 5811 5804 5795 5793 5783 5780 5773 5776 5771 5768 5768 5764 5762 5761 5765 5768 5769 5767 5767 5767 5766 5764 5765 5766 5765 5763 5762 5759
5845 5834 5816 5800 5784 5753 5781 5775 5777 5800 5823 5817 5815 5816 5819 5819 5824 5826 5823 5822 5815 5810 5802 5797 5791 5780 5776 5772 5773 5770 5767 5766 5763 5761 5760 5764 5767 5767 5765 5764 5765 5765 5764 5764 5766 5768 5767 5764 5764
5834 5796 5753 5755 5743 5746 5771 5767 5787 5826 5833 5835 5831 5821 5832 5830 5824 5822 5821 5822 5815 5807 5801 5797 5788 5778 5775 5775 5772 5769 5766 5767 5766 5764 5764 5764 5763 5762 5762 5762 5764 5763 5765 5765 5764 5764 5764 5764 5763
5814 5797 5753 5745 5732 5748 5773 5765 5801 5840 5845 5847 5844 5844 5842 5824 5826 5825 5821 5820 5813 5809 5801 5795 5785 5781 5775 5776 5773 5769 5767 5770 5770 5771 5767 5765 5763 5761 5762 5760 5759 5758 5758 5761 5760 5760 5762 5763 5763
5815 5789 5814 5772 5762 5748 5762 5788 5819 5844 5844 5842 5841 5843 5838 5839 5834 5827 5825 5822 5812 5804 5799 5793 5784 5784 5774 5777 5772 5769 5771 5772 5772 5771 5770 5769 5766 5764 5760 5761 5761 5758 5756 5756 5757 5758 5760 5762 5763
5821 5828 5787 5761 5749 5743 5752 5767 5774 5814 5822 5831 5844 5841 5841 5843 5838 5833 5829 5822 5813 5804 5799 5792 5787 5781 5778 5778 5774 5773 5774 5773 5772 5770 5770 5770 5768 5761 5758 5758 5758 5757 5753 5752 5753 5756 5761 5760 5762
5809 5801 5790 5780 5761 5734 5727 5753 5807 5818 5819 5831 5844 5849 5844 5844 5838 5834 5826 5823 5815 5807 5798 5790 5785 5782 5783 5779 5778 5776 5775 5773 5772 5770 5769 5769 5767 5762 5758 5759 5760 5757 5751 5750 5750 5752 5758 5759 5761
5825 5810 5797 5758 5764 5758 5753 5763 5820 5826 5824 5837 5841 5842 5847 5843 5837 5829 5822 5816 5809 5800 5791 5787 5789 5791 5788 5784 5780 5778 5778 5777 5774 5770 5770 5771 5766 5762 5759 5760 5756 5756 5755 5756 5752 5751 5758 5760 5759